Weather History for Manila, Philippines

Change the Weather History Date:

Friday, April 5, 2013

  Actual Average Record
Temperature  
Mean Temperature 87 °F -  
Max Temperature 96 °F 91 °F 96 °F (2013)
Min Temperature 78 °F 76 °F 75 °F (2009)
Cooling Degree Days 22    
Growing Degree Days 37 (Base 50)    
Moisture  
Dew Point 75 °F    
Average Humidity 69    
Maximum Humidity 89    
Minimum Humidity 41    
Precipitation  
Precipitation 0.00 in 0.04 in - ()
Sea Level Pressure  
Sea Level Pressure 29.74 in    
Wind  
Wind Speed 6 mph ()    
Max Wind Speed 16 mph    
Max Gust Speed -    
Visibility 6.1 miles    
Events      
Averages and records for this station are not official NWS values.
T = Trace of Precipitation, MM = Missing Value Source: Averaged Metar Reports

Daily Weather History Graph

Daily Weather History Graph

Search for Another Location

Airport:

Trip Planner

Search our weather history database for the weather conditions in past years. The results will help you decide how hot, cold, wet, or windy it might be!

Date:

Astronomy

Apr. 05, 2013 Rise Set
Actual Time 5:49 AM PHT 6:08 PM PHT
Civil Twilight 5:27 AM PHT 6:30 PM PHT
Nautical Twilight 5:02 AM PHT 6:55 PM PHT
Astronomical Twilight 4:37 AM PHT 7:20 PM PHT
Moon 1:43 AM PHT (4/5) 1:40 PM PHT (4/5)
Length of Visible Light 13h 02m
Length of Day
12h 19m
Waning Crescent, 28% of the Moon is Illuminated
Apr 5
Waning Crescent
Apr 10
New
Apr 18
First Quarter
Apr 26
Full
May 2
Last Quarter

Hourly Weather History & Observations

Time (PHT) Temp. Heat Index Dew Point Humidity Pressure Visibility Wind Dir Wind Speed Gust Speed Precip Events Conditions
12:00 AM 82.4 °F 89.5 °F 75.2 °F 79% 29.77 in 6.2 mi SE 4.6 mph - N/A   Partly Cloudy
1:00 AM 82.4 °F 89.5 °F 75.2 °F 79% 29.77 in 6.2 mi ESE 5.8 mph - N/A   Partly Cloudy
2:00 AM 82 °F - 75 °F 73% 29.76 in 6 mi SE 4.5 mph - -   Scattered Clouds
2:00 AM 82.4 °F 89.5 °F 75.2 °F 79% 29.74 in 6.2 mi SE 4.6 mph - N/A   Partly Cloudy
3:00 AM 82.4 °F 89.5 °F 75.2 °F 79% 29.74 in 6.2 mi SE 1.2 mph - N/A   Partly Cloudy
4:00 AM 80.6 °F 86.2 °F 75.2 °F 84% 29.74 in 6.2 mi East 4.6 mph - N/A   Partly Cloudy
5:00 AM 81 °F - 75 °F 78% 29.76 in 6 mi ESE 2.2 mph - -   Scattered Clouds
5:00 AM 80.6 °F 86.2 °F 75.2 °F 84% 29.74 in 6.2 mi ESE 3.5 mph - N/A   Scattered Clouds
6:00 AM 78.8 °F - 75.2 °F 89% 29.77 in 6.2 mi East 3.5 mph - N/A   Scattered Clouds
7:00 AM 80.6 °F 86.2 °F 75.2 °F 84% 29.80 in 5.6 mi ENE 2.3 mph - N/A   Partly Cloudy
8:00 AM 85 °F - 73 °F 60% 29.82 in 6 mi East 4.5 mph - -   Haze
8:00 AM 86.0 °F 93.4 °F 73.4 °F 66% 29.80 in 6.2 mi East 5.8 mph - N/A   Partly Cloudy
9:00 AM 87.8 °F 93.8 °F 71.6 °F 58% 29.80 in 6.2 mi ESE 6.9 mph - N/A   Partly Cloudy
10:00 AM 89.6 °F 94.7 °F 69.8 °F 52% 29.80 in 6.2 mi ESE 6.9 mph - N/A   Partly Cloudy
11:00 AM 92 °F - 71 °F 41% 29.78 in 6 mi ESE 6.7 mph - -   Scattered Clouds
11:00 AM 91.4 °F 98.4 °F 71.6 °F 52% 29.77 in 6.2 mi ESE 6.9 mph - N/A   Partly Cloudy
12:00 PM 91.4 °F 100.1 °F 73.4 °F 55% 29.74 in 6.2 mi ESE 10.4 mph - N/A   Partly Cloudy
1:00 PM 91.4 °F 100.1 °F 73.4 °F 55% 29.74 in 6.2 mi ESE 10.4 mph - N/A   Partly Cloudy
2:00 PM 90 °F - 76 °F 54% 29.69 in 6 mi SW 4.5 mph - -   Scattered Clouds
2:00 PM 89.6 °F 94.7 °F 69.8 °F 52% 29.68 in 6.2 mi SW 5.8 mph - N/A   Partly Cloudy
3:00 PM 89.6 °F 99.8 °F 75.2 °F 62% 29.68 in 6.2 mi SW 5.8 mph - N/A   Scattered Clouds
4:00 PM 89.6 °F 99.8 °F 75.2 °F 62% 29.65 in 6.2 mi West 15.0 mph - N/A   Partly Cloudy
5:00 PM 88 °F - 74 °F 54% 29.67 in 6 mi West 15.7 mph - -   Partly Cloudy
5:00 PM 87.8 °F 97.6 °F 75.2 °F 66% 29.65 in 6.2 mi West 16.1 mph - N/A   Partly Cloudy
6:00 PM 86.0 °F 95.1 °F 75.2 °F 70% 29.68 in 6.2 mi West 16.1 mph - N/A   Partly Cloudy
7:00 PM 84.2 °F 92.3 °F 75.2 °F 74% 29.71 in 6.2 mi WSW 12.7 mph - N/A   Partly Cloudy
8:00 PM 84 °F - 76 °F 71% 29.73 in 6 mi WSW 11.2 mph - -   Scattered Clouds
8:00 PM 84.2 °F 94.1 °F 77.0 °F 79% 29.71 in 6.2 mi WSW 10.4 mph - N/A   Partly Cloudy
9:00 PM 84.2 °F 94.1 °F 77.0 °F 79% 29.74 in 6.2 mi SW 8.1 mph - N/A   Partly Cloudy
10:00 PM 84.2 °F 96.1 °F 78.8 °F 84% 29.77 in 6.2 mi WSW 8.1 mph - N/A   Scattered Clouds
11:00 PM 83 °F - 77 °F 79% 29.79 in 6 mi WSW 4.5 mph - -   Partly Cloudy
11:00 PM 84.2 °F 96.1 °F 78.8 °F 84% 29.77 in - WSW 5.8 mph - N/A   Scattered Clouds